Overview Statistics Trail Chart Weather Telemetry Raw packets
 

This is the latest recevied weather packets stored in our database for station/object KI4NG. If no packets are shown the sender has not sent any weather packets the latest 10 day(s).

<< 78 79 80 81 82 83 84 >>
Time Temp. Humidity Pressure Rain* Wind** Luminosity Snow
1788052567 23.33° C 84% 1021.5 hPa 0 mm - 0 W/m² -
1788052262 23.33° C 84% 1021.2 hPa 0 mm - 0 W/m² -
1788051957 23.33° C 84% 1021.2 hPa 0 mm - 0 W/m² -
1788051653 23.89° C 83% 1021.1 hPa 0 mm - 0 W/m² -
1788051350 23.89° C 83% 1021.2 hPa 0 mm - 0 W/m² -
1788051049 23.89° C 82% 1021.4 hPa 0 mm - 0 W/m² -
1788050744 24.44° C 81% 1021.4 hPa 0 mm - 0 W/m² -
1788050444 24.44° C 80% 1021.4 hPa 0 mm - 0 W/m² -
1788050139 24.44° C 80% 1021.3 hPa 0 mm - 0 W/m² -
1788049834 24.44° C 79% 1021.3 hPa 0 mm - 0 W/m² -
1788049532 25° C 78% 1021.3 hPa 0 mm - 0 W/m² -
1788049228 25° C 77% 1021.4 hPa 0 mm - 0 W/m² -
1788048923 25° C 77% 1021.3 hPa 0 mm - 0 W/m² -
1788048619 25.56° C 76% 1021.3 hPa 0 mm - 0 W/m² -
1788048316 25.56° C 75% 1021.3 hPa 0 mm - 2 W/m² -
1788048016 25.56° C 76% 1021.1 hPa 0 mm - 4 W/m² -
1788047708 26.11° C 74% 1021.1 hPa 0 mm - 6 W/m² -
1788047407 26.11° C 74% 1021.2 hPa 0 mm - 11 W/m² -
1788047103 26.11° C 74% 1021.1 hPa 0 mm - 12 W/m² -
1788046797 26.67° C 75% 1021.1 hPa 0 mm - 19 W/m² -
1788046496 26.67° C 73% 1021.1 hPa 0 mm - 26 W/m² -
1788046190 26.67° C 74% 1021 hPa 0 mm - 32 W/m² -
1788045884 27.22° C 73% 1021 hPa 0 mm - 35 W/m² -
1788045579 27.22° C 72% 1021 hPa 0 mm - 46 W/m² -
1788045275 27.22° C 72% 1021 hPa 0 mm - 49 W/m² -

* Rain latest hour (hover to see other rain measurements)
** Current wind speed in m/s (hover to see current wind gust speed)